User: anonymous   Login
Location: Marcé
(47.5801°N, 0.3280°W)
Time: 14:35:43
(UTC+01:00)
Language:

Transit 2A Rocket - Orbit

View from above orbital plane
View from above orbital plane
View from above satellite
View from above satellite

Ground track
Ground track

The orbit data is extracted from the following two-line orbital elements,

1 00047U 60007C   21342.83729930 -.00000018  00000-0  21067-4 0  9997
2 00047  66.6640 152.6515 0234694 268.6761  88.7449 14.42200322212454
Epoch (UTC): 08 December 2021 20:05:42
Eccentricity: 0.0234694
inclination: 66.6640°
perigee height: 584 km
apogee height: 918 km
right ascension of ascending node: 152.6515°
argument of perigee: 268.6761°
revolutions per day: 14.42200322
mean anomaly at epoch: 88.7449°
orbit number at epoch: 21245

The dashed part of the orbit path shows where the satellite is in the earth's shadow,  

DLR